Wetterdaten: aktuell Freitag, 27.11.2020 21:10
Datum Zeit Temp. A. Feuchte A. Luftdruck Regen Wind Richtung Richtung ET UV Solar Taupunkt Windchill Windben
27.11.2020 21:10 7,8 C 94 % 1020,5 hPa 0,0 l/m 6,6 km/h (2 Bft) O-SO 121 0,000 mm 0,0 UV-I 0 W/m 6,9 C 7,7 C 14,5 km/h (3 Bft)
27.11.2020 21:05 7,8 C 94 % 1020,5 hPa 0,0 l/m 3,0 km/h (1 Bft) SO 130 0,000 mm 0,0 UV-I 0 W/m 6,9 C 7,8 C 6,4 km/h (2 Bft)
27.11.2020 21:00 7,8 C 94 % 1020,5 hPa 0,0 l/m 3,0 km/h (1 Bft) O-SO 102 0,000 mm 0,0 UV-I 0 W/m 6,9 C 7,8 C 11,3 km/h (2 Bft)
27.11.2020 20:55 7,8 C 94 % 1020,5 hPa 0,0 l/m 2,3 km/h (1 Bft) O-SO 113 0,000 mm 0,0 UV-I 0 W/m 6,9 C 7,8 C 11,3 km/h (2 Bft)
27.11.2020 20:50 7,8 C 94 % 1020,5 hPa 0,0 l/m 1,2 km/h (1 Bft) O-SO 103 0,000 mm 0,0 UV-I 0 W/m 6,9 C 7,8 C 9,7 km/h (2 Bft)
27.11.2020 20:45 7,8 C 94 % 1020,5 hPa 0,0 l/m 3,9 km/h (1 Bft) O-SO 107 0,000 mm 0,0 UV-I 0 W/m 6,9 C 7,8 C 9,7 km/h (2 Bft)
27.11.2020 20:40 7,8 C 94 % 1020,4 hPa 0,0 l/m 4,9 km/h (1 Bft) SO 128 0,000 mm 0,0 UV-I 0 W/m 6,9 C 7,8 C 16,1 km/h (3 Bft)
27.11.2020 20:35 7,8 C 94 % 1020,5 hPa 0,0 l/m 5,1 km/h (1 Bft) O-SO 114 0,000 mm 0,0 UV-I 0 W/m 6,9 C 7,8 C 11,3 km/h (2 Bft)
27.11.2020 20:30 7,9 C 94 % 1020,5 hPa 0,0 l/m 3,0 km/h (1 Bft) O-SO 108 0,000 mm 0,0 UV-I 0 W/m 7,0 C 7,9 C 9,7 km/h (2 Bft)
27.11.2020 20:25 7,9 C 94 % 1020,5 hPa 0,0 l/m 3,6 km/h (1 Bft) O 97 0,000 mm 0,0 UV-I 0 W/m 7,0 C 7,9 C 9,7 km/h (2 Bft)
27.11.2020 20:20 7,9 C 94 % 1020,5 hPa 0,0 l/m 2,8 km/h (1 Bft) O-SO 111 0,000 mm 0,0 UV-I 0 W/m 7,0 C 7,9 C 14,5 km/h (3 Bft)
27.11.2020 20:15 7,9 C 94 % 1020,5 hPa 0,0 l/m 3,6 km/h (1 Bft) O-SO 115 0,000 mm 0,0 UV-I 0 W/m 7,0 C 7,9 C 11,3 km/h (2 Bft)
27.11.2020 20:10 7,9 C 94 % 1020,5 hPa 0,0 l/m 1,8 km/h (1 Bft) O 98 0,000 mm 0,0 UV-I 0 W/m 7,0 C 7,9 C 6,4 km/h (2 Bft)
27.11.2020 20:05 7,9 C 94 % 1020,6 hPa 0,0 l/m 2,7 km/h (1 Bft) O-SO 110 0,000 mm 0,0 UV-I 0 W/m 7,0 C 7,9 C 9,7 km/h (2 Bft)
27.11.2020 20:00 7,9 C 94 % 1020,6 hPa 0,0 l/m 4,6 km/h (1 Bft) O-SO 108 0,000 mm 0,0 UV-I 0 W/m 7,0 C 7,9 C 12,9 km/h (3 Bft)
27.11.2020 19:55 7,9 C 94 % 1020,5 hPa 0,0 l/m 0,5 km/h (0 Bft) O-SO 113 0,000 mm 0,0 UV-I 0 W/m 7,0 C 7,9 C 4,8 km/h (1 Bft)
27.11.2020 19:50 8,0 C 94 % 1020,6 hPa 0,0 l/m 0,7 km/h (0 Bft) O 96 0,000 mm 0,0 UV-I 0 W/m 7,1 C 8,0 C 4,8 km/h (1 Bft)
27.11.2020 19:45 8,0 C 94 % 1020,5 hPa 0,0 l/m 0,7 km/h (0 Bft) O-SO 105 0,000 mm 0,0 UV-I 0 W/m 7,1 C 8,0 C 4,8 km/h (1 Bft)
27.11.2020 19:40 8,0 C 94 % 1020,5 hPa 0,0 l/m 1,4 km/h (1 Bft) O 98 0,000 mm 0,0 UV-I 0 W/m 7,1 C 8,0 C 6,4 km/h (2 Bft)
27.11.2020 19:35 8,0 C 94 % 1020,5 hPa 0,0 l/m 1,5 km/h (1 Bft) O-NO 68 0,000 mm 0,0 UV-I 0 W/m 7,1 C 8,0 C 8,0 km/h (2 Bft)
27.11.2020 19:30 8,1 C 94 % 1020,5 hPa 0,0 l/m 1,7 km/h (1 Bft) O-NO 75 0,000 mm 0,0 UV-I 0 W/m 7,2 C 8,1 C 6,4 km/h (2 Bft)
27.11.2020 19:25 8,1 C 94 % 1020,4 hPa 0,0 l/m 2,2 km/h (1 Bft) O-NO 69 0,000 mm 0,0 UV-I 0 W/m 7,2 C 8,1 C 9,7 km/h (2 Bft)
27.11.2020 19:20 8,1 C 94 % 1020,6 hPa 0,0 l/m 2,5 km/h (1 Bft) O 94 0,000 mm 0,0 UV-I 0 W/m 7,2 C 8,1 C 11,3 km/h (2 Bft)
27.11.2020 19:15 8,1 C 94 % 1020,4 hPa 0,0 l/m 1,2 km/h (1 Bft) O 80 0,000 mm 0,0 UV-I 0 W/m 7,2 C 8,1 C 6,4 km/h (2 Bft)
27.11.2020 19:10 8,1 C 94 % 1020,5 hPa 0,0 l/m 0,8 km/h (0 Bft) O-SO 110 0,000 mm 0,0 UV-I 0 W/m 7,2 C 8,1 C 4,8 km/h (1 Bft)
27.11.2020 19:05 8,1 C 94 % 1020,4 hPa 0,0 l/m 1,3 km/h (1 Bft) O-SO 112 0,000 mm 0,0 UV-I 0 W/m 7,2 C 8,1 C 6,4 km/h (2 Bft)
27.11.2020 19:00 8,1 C 94 % 1020,5 hPa 0,0 l/m 2,1 km/h (1 Bft) O-SO 103 0,000 mm 0,0 UV-I 0 W/m 7,2 C 8,1 C 6,4 km/h (2 Bft)
27.11.2020 18:55 8,1 C 94 % 1020,5 hPa 0,0 l/m 1,9 km/h (1 Bft) O-SO 105 0,000 mm 0,0 UV-I 0 W/m 7,2 C 8,1 C 9,7 km/h (2 Bft)
27.11.2020 18:50 8,1 C 94 % 1020,5 hPa 0,0 l/m 2,5 km/h (1 Bft) O 101 0,000 mm 0,0 UV-I 0 W/m 7,2 C 8,1 C 8,0 km/h (2 Bft)
27.11.2020 18:45 8,1 C 94 % 1020,5 hPa 0,0 l/m 1,7 km/h (1 Bft) O 90 0,000 mm 0,0 UV-I 0 W/m 7,2 C 8,1 C 6,4 km/h (2 Bft)
27.11.2020 18:40 8,1 C 94 % 1020,5 hPa 0,0 l/m 4,3 km/h (1 Bft) O 93 0,000 mm 0,0 UV-I 0 W/m 7,2 C 8,1 C 12,9 km/h (3 Bft)
27.11.2020 18:35 8,1 C 94 % 1020,5 hPa 0,0 l/m 1,7 km/h (1 Bft) O-SO 114 0,000 mm 0,0 UV-I 0 W/m 7,2 C 8,1 C 11,3 km/h (2 Bft)
27.11.2020 18:30 8,1 C 94 % 1020,4 hPa 0,0 l/m 3,8 km/h (1 Bft) O-SO 105 0,000 mm 0,0 UV-I 0 W/m 7,2 C 8,1 C 9,7 km/h (2 Bft)
27.11.2020 18:25 8,1 C 94 % 1020,4 hPa 0,0 l/m 2,2 km/h (1 Bft) O 88 0,000 mm 0,0 UV-I 0 W/m 7,2 C 8,1 C 9,7 km/h (2 Bft)
27.11.2020 18:20 8,1 C 94 % 1020,5 hPa 0,0 l/m 3,1 km/h (1 Bft) O-SO 106 0,000 mm 0,0 UV-I 0 W/m 7,2 C 8,1 C 9,7 km/h (2 Bft)
27.11.2020 18:15 8,1 C 94 % 1020,3 hPa 0,0 l/m 1,0 km/h (0 Bft) O 84 0,000 mm 0,0 UV-I 0 W/m 7,2 C 8,1 C 4,8 km/h (1 Bft)
27.11.2020 18:10 8,1 C 94 % 1020,3 hPa 0,0 l/m 1,9 km/h (1 Bft) O 99 0,000 mm 0,0 UV-I 0 W/m 7,2 C 8,1 C 6,4 km/h (2 Bft)
27.11.2020 18:05 8,0 C 94 % 1020,2 hPa 0,0 l/m 4,3 km/h (1 Bft) O-SO 120 0,000 mm 0,0 UV-I 0 W/m 7,1 C 8,0 C 12,9 km/h (3 Bft)
27.11.2020 18:00 8,1 C 94 % 1020,2 hPa 0,0 l/m 3,4 km/h (1 Bft) O-SO 122 0,000 mm 0,0 UV-I 0 W/m 7,2 C 8,1 C 8,0 km/h (2 Bft)
27.11.2020 17:55 8,1 C 95 % 1020,3 hPa 0,0 l/m 2,8 km/h (1 Bft) O-SO 118 0,000 mm 0,0 UV-I 0 W/m 7,3 C 8,1 C 6,4 km/h (2 Bft)
27.11.2020 17:50 8,1 C 95 % 1020,3 hPa 0,0 l/m 1,0 km/h (0 Bft) O-SO 122 0,000 mm 0,0 UV-I 0 W/m 7,3 C 8,1 C 6,4 km/h (2 Bft)
27.11.2020 17:45 8,1 C 95 % 1020,1 hPa 0,0 l/m 1,5 km/h (1 Bft) O 94 0,000 mm 0,0 UV-I 0 W/m 7,3 C 8,1 C 8,0 km/h (2 Bft)
27.11.2020 17:40 8,1 C 95 % 1020,3 hPa 0,0 l/m 1,6 km/h (1 Bft) O-SO 115 0,000 mm 0,0 UV-I 0 W/m 7,3 C 8,1 C 6,4 km/h (2 Bft)
27.11.2020 17:35 8,1 C 95 % 1020,2 hPa 0,0 l/m 1,9 km/h (1 Bft) O-SO 115 0,000 mm 0,0 UV-I 0 W/m 7,3 C 8,1 C 6,4 km/h (2 Bft)
27.11.2020 17:30 8,1 C 95 % 1020,1 hPa 0,0 l/m 3,8 km/h (1 Bft) O-SO 110 0,000 mm 0,0 UV-I 0 W/m 7,3 C 8,1 C 9,7 km/h (2 Bft)
27.11.2020 17:25 8,1 C 95 % 1020,2 hPa 0,0 l/m 0,5 km/h (0 Bft) SO 128 0,000 mm 0,0 UV-I 0 W/m 7,3 C 8,1 C 3,2 km/h (1 Bft)
27.11.2020 17:20 8,1 C 95 % 1020,2 hPa 0,0 l/m 1,7 km/h (1 Bft) SO 128 0,000 mm 0,0 UV-I 0 W/m 7,3 C 8,1 C 6,4 km/h (2 Bft)
27.11.2020 17:15 8,1 C 95 % 1020,2 hPa 0,0 l/m 4,2 km/h (1 Bft) SO 129 0,000 mm 0,0 UV-I 0 W/m 7,3 C 8,1 C 8,0 km/h (2 Bft)
27.11.2020 17:10 8,1 C 95 % 1020,1 hPa 0,0 l/m 2,6 km/h (1 Bft) SO 128 0,000 mm 0,0 UV-I 0 W/m 7,3 C 8,1 C 11,3 km/h (2 Bft)
27.11.2020 17:05 8,1 C 95 % 1020,1 hPa 0,0 l/m 0,9 km/h (0 Bft) SO 140 0,000 mm 0,0 UV-I 0 W/m 7,3 C 8,1 C 6,4 km/h (2 Bft)
27.11.2020 17:00 8,1 C 95 % 1020,1 hPa 0,0 l/m 1,0 km/h (0 Bft) S-SO 160 0,000 mm 0,0 UV-I 0 W/m 7,3 C 8,1 C 6,4 km/h (2 Bft)
27.11.2020 16:55 8,1 C 95 % 1020,2 hPa 0,0 l/m 1,0 km/h (0 Bft) SO 146 0,000 mm 0,0 UV-I 0 W/m 7,3 C 8,1 C 6,4 km/h (2 Bft)
27.11.2020 16:45 8,1 C 95 % 1020,1 hPa 0,0 l/m 6,4 km/h (2 Bft) SO 135 0,000 mm 0,0 UV-I 0 W/m 7,3 C 8,1 C 12,9 km/h (3 Bft)
27.11.2020 16:40 8,2 C 95 % 1020,1 hPa 0,0 l/m 4,3 km/h (1 Bft) SO 127 0,000 mm 0,0 UV-I 0 W/m 7,4 C 8,2 C 11,3 km/h (2 Bft)
27.11.2020 16:35 8,1 C 95 % 1020,0 hPa 0,0 l/m 2,7 km/h (1 Bft) O-SO 110 0,000 mm 0,0 UV-I 0 W/m 7,3 C 8,1 C 11,3 km/h (2 Bft)
27.11.2020 16:30 8,2 C 95 % 1020,0 hPa 0,0 l/m 0,7 km/h (0 Bft) O 97 0,000 mm 0,0 UV-I 0 W/m 7,4 C 8,2 C 4,8 km/h (1 Bft)
27.11.2020 16:25 8,2 C 95 % 1020,0 hPa 0,0 l/m 1,0 km/h (0 Bft) SO 125 0,000 mm 0,0 UV-I 0 W/m 7,4 C 8,2 C 6,4 km/h (2 Bft)
27.11.2020 16:20 8,2 C 95 % 1020,0 hPa 0,0 l/m 1,5 km/h (1 Bft) SO 126 0,000 mm 0,0 UV-I 0 W/m 7,4 C 8,2 C 6,4 km/h (2 Bft)
27.11.2020 16:15 8,2 C 95 % 1019,9 hPa 0,0 l/m 8,4 km/h (2 Bft) SO 138 0,000 mm 0,0 UV-I 0 W/m 7,4 C 6,7 C 17,7 km/h (3 Bft)
27.11.2020 16:10 8,2 C 95 % 1019,9 hPa 0,0 l/m 3,8 km/h (1 Bft) O-SO 112 0,000 mm 0,0 UV-I 0 W/m 7,4 C 8,2 C 11,3 km/h (2 Bft)
27.11.2020 16:05 8,2 C 95 % 1019,9 hPa 0,0 l/m 4,9 km/h (1 Bft) SO 127 0,000 mm 0,0 UV-I 0 W/m 7,4 C 8,2 C 11,3 km/h (2 Bft)
27.11.2020 16:00 8,2 C 95 % 1020,0 hPa 0,0 l/m 2,5 km/h (1 Bft) O 98 0,000 mm 0,0 UV-I 3 W/m 7,4 C 8,2 C 9,7 km/h (2 Bft)
27.11.2020 15:55 8,2 C 95 % 1020,0 hPa 0,0 l/m 4,4 km/h (1 Bft) O-SO 115 0,000 mm 0,0 UV-I 5 W/m 7,4 C 8,2 C 8,0 km/h (2 Bft)
27.11.2020 15:50 8,3 C 95 % 1020,0 hPa 0,0 l/m 2,0 km/h (1 Bft) SO 133 0,000 mm 0,0 UV-I 7 W/m 7,5 C 8,3 C 8,0 km/h (2 Bft)
27.11.2020 15:45 8,3 C 95 % 1020,0 hPa 0,0 l/m 0,2 km/h (0 Bft) SO 125 0,000 mm 0,0 UV-I 9 W/m 7,5 C 8,3 C 1,6 km/h (1 Bft)
27.11.2020 15:40 8,3 C 95 % 1020,0 hPa 0,0 l/m 0,0 km/h (0 Bft) SO 126 0,000 mm 0,0 UV-I 12 W/m 7,5 C 8,3 C 1,6 km/h (1 Bft)
27.11.2020 15:35 8,3 C 95 % 1019,9 hPa 0,0 l/m 0,6 km/h (0 Bft) SO 126 0,000 mm 0,0 UV-I 14 W/m 7,5 C 8,3 C 3,2 km/h (1 Bft)
27.11.2020 15:30 8,3 C 95 % 1019,9 hPa 0,0 l/m 3,9 km/h (1 Bft) SO 128 0,000 mm 0,0 UV-I 16 W/m 7,5 C 8,3 C 12,9 km/h (3 Bft)
27.11.2020 15:25 8,3 C 95 % 1020,0 hPa 0,0 l/m 3,2 km/h (1 Bft) O-SO 116 0,000 mm 0,0 UV-I 22 W/m 7,5 C 8,3 C 11,3 km/h (2 Bft)
27.11.2020 15:20 8,3 C 95 % 1020,0 hPa 0,0 l/m 3,7 km/h (1 Bft) SO 134 0,000 mm 0,0 UV-I 25 W/m 7,5 C 8,3 C 11,3 km/h (2 Bft)
27.11.2020 15:15 8,3 C 95 % 1019,9 hPa 0,0 l/m 1,7 km/h (1 Bft) O 101 0,000 mm 0,0 UV-I 23 W/m 7,5 C 8,3 C 6,4 km/h (2 Bft)
27.11.2020 15:10 8,3 C 95 % 1020,0 hPa 0,0 l/m 3,5 km/h (1 Bft) O 100 0,000 mm 0,0 UV-I 25 W/m 7,5 C 8,3 C 9,7 km/h (2 Bft)
27.11.2020 15:05 8,3 C 95 % 1019,9 hPa 0,0 l/m 2,1 km/h (1 Bft) O 100 0,025 mm 0,0 UV-I 30 W/m 7,5 C 8,3 C 9,7 km/h (2 Bft)
27.11.2020 15:00 8,3 C 96 % 1019,9 hPa 0,0 l/m 0,1 km/h (0 Bft) O-SO 114 0,000 mm 0,0 UV-I 39 W/m 7,7 C 8,3 C 1,6 km/h (1 Bft)
27.11.2020 14:55 8,3 C 96 % 1020,0 hPa 0,0 l/m 0,8 km/h (0 Bft) O-SO 114 0,000 mm 0,0 UV-I 35 W/m 7,7 C 8,3 C 4,8 km/h (1 Bft)
27.11.2020 14:50 8,3 C 96 % 1019,9 hPa 0,0 l/m 0,9 km/h (0 Bft) O-SO 115 0,000 mm 0,0 UV-I 32 W/m 7,7 C 8,3 C 6,4 km/h (2 Bft)
27.11.2020 14:45 8,3 C 96 % 1020,0 hPa 0,0 l/m 3,3 km/h (1 Bft) O-SO 117 0,000 mm 0,0 UV-I 30 W/m 7,7 C 8,3 C 11,3 km/h (2 Bft)
27.11.2020 14:40 8,3 C 96 % 1020,0 hPa 0,0 l/m 1,6 km/h (1 Bft) SO 145 0,000 mm 0,0 UV-I 30 W/m 7,7 C 8,3 C 6,4 km/h (2 Bft)
27.11.2020 14:35 8,3 C 96 % 1020,0 hPa 0,0 l/m 3,5 km/h (1 Bft) O-SO 121 0,000 mm 0,0 UV-I 26 W/m 7,7 C 8,3 C 11,3 km/h (2 Bft)
27.11.2020 14:30 8,3 C 96 % 1020,0 hPa 0,0 l/m 2,6 km/h (1 Bft) O-SO 112 0,000 mm 0,0 UV-I 27 W/m 7,7 C 8,3 C 6,4 km/h (2 Bft)
27.11.2020 14:25 8,3 C 96 % 1020,1 hPa 0,0 l/m 5,9 km/h (2 Bft) SO 131 0,000 mm 0,0 UV-I 22 W/m 7,7 C 8,3 C 12,9 km/h (3 Bft)
27.11.2020 14:20 8,3 C 96 % 1020,0 hPa 0,0 l/m 1,3 km/h (1 Bft) O-SO 108 0,000 mm 0,0 UV-I 25 W/m 7,7 C 8,3 C 6,4 km/h (2 Bft)
27.11.2020 14:15 8,3 C 96 % 1020,0 hPa 0,0 l/m 2,6 km/h (1 Bft) O-SO 121 0,000 mm 0,0 UV-I 23 W/m 7,7 C 8,3 C 6,4 km/h (2 Bft)
27.11.2020 14:10 8,3 C 96 % 1020,1 hPa 0,0 l/m 1,9 km/h (1 Bft) O-SO 123 0,000 mm 0,0 UV-I 21 W/m 7,7 C 8,3 C 4,8 km/h (1 Bft)
27.11.2020 14:05 8,3 C 96 % 1020,1 hPa 0,0 l/m 3,2 km/h (1 Bft) O-SO 121 0,025 mm 0,0 UV-I 26 W/m 7,7 C 8,3 C 9,7 km/h (2 Bft)
27.11.2020 14:00 8,3 C 96 % 1020,1 hPa 0,0 l/m 6,4 km/h (2 Bft) O-SO 105 0,000 mm 0,0 UV-I 30 W/m 7,7 C 8,3 C 14,5 km/h (3 Bft)
27.11.2020 13:55 8,3 C 96 % 1020,0 hPa 0,0 l/m 5,7 km/h (1 Bft) O-SO 112 0,000 mm 0,0 UV-I 32 W/m 7,7 C 8,3 C 12,9 km/h (3 Bft)
27.11.2020 13:50 8,3 C 97 % 1020,1 hPa 0,0 l/m 4,0 km/h (1 Bft) O-NO 64 0,000 mm 0,0 UV-I 41 W/m 7,9 C 8,3 C 14,5 km/h (3 Bft)
27.11.2020 13:45 8,3 C 97 % 1020,0 hPa 0,0 l/m 1,6 km/h (1 Bft) O-SO 117 0,000 mm 0,0 UV-I 44 W/m 7,9 C 8,3 C 11,3 km/h (2 Bft)
27.11.2020 13:40 8,3 C 97 % 1020,1 hPa 0,0 l/m 1,1 km/h (1 Bft) SO 130 0,000 mm 0,0 UV-I 46 W/m 7,9 C 8,3 C 3,2 km/h (1 Bft)
27.11.2020 13:35 8,3 C 97 % 1020,1 hPa 0,0 l/m 5,0 km/h (1 Bft) O-SO 117 0,000 mm 0,0 UV-I 52 W/m 7,9 C 8,3 C 11,3 km/h (2 Bft)
27.11.2020 13:30 8,3 C 97 % 1020,1 hPa 0,0 l/m 3,8 km/h (1 Bft) SO 124 0,000 mm 0,0 UV-I 58 W/m 7,9 C 8,3 C 14,5 km/h (3 Bft)
27.11.2020 13:25 8,3 C 97 % 1020,1 hPa 0,0 l/m 3,7 km/h (1 Bft) O-SO 121 0,000 mm 0,0 UV-I 73 W/m 7,9 C 8,3 C 11,3 km/h (2 Bft)
27.11.2020 13:20 8,2 C 97 % 1020,1 hPa 0,0 l/m 4,2 km/h (1 Bft) O-SO 119 0,000 mm 0,0 UV-I 79 W/m 7,8 C 8,2 C 12,9 km/h (3 Bft)
27.11.2020 13:15 8,2 C 97 % 1020,1 hPa 0,0 l/m 5,6 km/h (1 Bft) SO 127 0,000 mm 0,0 UV-I 72 W/m 7,8 C 8,2 C 12,9 km/h (3 Bft)
27.11.2020 13:10 8,3 C 98 % 1020,1 hPa 0,0 l/m 6,3 km/h (2 Bft) O-SO 116 0,000 mm 0,0 UV-I 67 W/m 8,0 C 8,3 C 12,9 km/h (3 Bft)
27.11.2020 13:05 8,3 C 98 % 1020,1 hPa 0,0 l/m 6,4 km/h (2 Bft) O-SO 107 0,000 mm 0,0 UV-I 71 W/m 8,0 C 8,3 C 14,5 km/h (3 Bft)
_ Min-Zeit 05:20 18:00 05:00 - 22:00 - - - - - 05:20 05:20 22:00
Minimum _ 6,4 C 94 % 1019,4 hPa - 0,0 km/h (0 Bft) - - - - - 6,0 C 6,4 C 0,0 km/h (0 Bft)
_ Max-Zeit 12:15 08:35 10:55 02:45 12:45 - - 13:00 22:00 12:15 12:15 12:15 12:45
Maximum _ 8,4 C 98 % 1020,8 hPa 0,2 l/m 8,5 km/h
SO (2 Bft)
- - 0,051 mm 0,0 UV-I 105 W/m 8,1 C 8,4 C 17,7 km/h
SO (3 Bft)
Durchschnitt _ 7,5 C 96 % 1020,1 hPa #0,6 l/m 1,3 km/h (1 Bft) O-SO - #0,152 mm 0,0 UV-I 44 W/m 6,9 C 7,5 C 4,1 km/h (1 Bft)